TIME,DELAY(SENSOR),PRES,OXYGEN,RAWTEMP,T(OPTODE),TCPHASE,FLUOR,BETA(BETA700),BETA(BETA412),BETA(BETA440),CDOM,C(CSC),ED(ED411.90),ED(ED443.80),ED(ED489.40),ED(ED554.70),LU(LU412.20),LU(LU443.80),LU(LU489.40),LU(LU555.00),COMP,TILTX,TILTY,CHECK
1354053438,5804,845.2800292968750000,164.8692016601562500,415.8565063476562500,10.1188297271728520,38.8620681762695300,52,102,57,55,62,13330,2146959058,2147517083,2147282706,2147501796,2147090002,2146931081,2147702710,2147120969,1335,-1,9,11974
1354057034,5807,958.9299926757812000,192.4868011474609400,492.1070861816406000,7.7741580009460450,38.2341499328613300,52,100,55,55,62,13323,2146963264,2147522112,2147293220,2147518555,2147090349,2146915904,2147717120,2147118518,855,-1,8,32917
1354060634,5809,976.2899780273438000,203.7500000000000000,502.9007873535156000,7.4394707679748535,37.7207984924316400,52,103,57,55,62,13320,2146960612,2147520429,2147294857,2147519442,2147091227,2146919076,2147720905,2147120594,966,-1,8,10245
1354064234,5808,975.1699829101562000,206.2911071777343800,506.7275085449219000,7.3206281661987305,37.6341209411621100,52,102,56,54,62,13317,2146961408,2147521060,2147295625,2147517174,2147092717,2146921490,2147716626,2147121462,297,-1,9,724
1354067834,5807,970.1400146484375000,207.4165039062500000,509.3841857910156000,7.2380599975585940,37.6135482788085940,52,103,57,56,62,13317,2146962084,2147521298,2147292918,2147520621,2147086902,2146918482,2147720365,2147121792,3007,-1,9,4021
1354071434,5807,974.6400146484375000,211.3480987548828000,512.3784179687500000,7.1449460983276370,37.4348907470703100,52,103,57,55,62,13315,2146964205,2147518582,2147296658,2147517385,2147090112,2146921782,2147719881,2147118619,3130,-1,9,47468
1354075034,5807,979.2700195312500000,211.1459960937500000,512.9049072265625000,7.1285672187805180,37.4562492370605500,51,103,56,55,62,13316,2146965485,2147519954,2147297792,2147520374,2147088877,2146921654,2147724672,2147119049,3209,-1,9,61677
1354078634,5807,983.7600097656250000,210.9132995605468800,512.9638061523438000,7.1267352104187010,37.4710197448730500,52,99,55,55,63,13314,2146961773,2147519725,2147295012,2147522998,2147091821,2146921728,2147717988,2147119122,365,-1,8,40262
1354082234,5805,983.2299804687500000,211.0751953125000000,512.5313110351562000,7.1401920318603520,37.4532318115234400,52,99,57,55,62,13309,2146966436,2147520374,2147293906,2147517933,2147089874,2146925705,2147715849,2147119561,3483,-1,9,18666
1354085834,5806,986.1599731445312000,211.3522033691406200,512.7122802734375000,7.1345582008361820,37.4403686523437500,52,146,56,54,62,13306,2146959990,2147521645,2147295451,2147517037,2147091245,2146923218,2147717120,2147119232,3553,-1,9,17425
1354089434,5809,984.7899780273438000,211.3300933837890600,512.6621704101562000,7.1361169815063480,37.4409904479980500,52,100,56,54,62,13307,2146962441,2147518436,2147296256,2147517668,2147091410,2146925430,2147717421,2147119707,95,-1,8,39381
1354093034,5806,985.8800048828125000,211.3090057373047000,512.6978149414062000,7.1350121498107910,37.4429588317871100,52,102,55,56,62,13303,2146962230,2147519652,2147293860,2147520566,2147091977,2146925110,2147717851,2147119826,185,-1,8,4961
1354096634,5806,989.8699951171875000,210.2814941406250000,511.7580871582031000,7.1642441749572750,37.4866104125976560,53,99,55,55,63,13307,2146964178,2147521325,2147298642,2147518838,2147087378,2146924644,2147718217,2147119360,2949,-1,9,15323
1354100234,5806,988.6500244140625000,208.2317962646484400,511.5535888671875000,7.1706027984619140,37.6032485961914060,53,137,56,56,62,13303,2146962916,2147520530,2147297709,2147517915,2147089956,2146926409,2147723574,2147122432,3364,-1,9,44454
1354103834,5807,989.2700195312500000,210.7010955810547000,512.1215209960938000,7.1529388427734375,37.4681396484375000,51,102,56,55,63,13304,2146962998,2147521051,2147294528,2147520987,2147089179,2146923584,2147722185,2147123593,769,-1,9,63758
1354107434,5804,985.5599975585938000,211.7360992431640600,513.7232055664062000,7.1031060218811035,37.4356117248535160,52,102,54,55,63,13304,2146961572,2147517293,2147294016,2147516077,2147091318,2146923145,2147720438,2147120274,3285,-1,9,39064
1354111034,5809,986.4099731445312000,211.8484954833984400,513.7587280273438000,7.1020030975341800,37.4300117492675800,52,102,56,55,62,13303,2146961097,2147516315,2147294052,2147518134,2147090706,2146920192,2147718674,2147119780,3597,-1,9,24758
1354114634,5807,985.2100219726562000,212.2478027343750000,515.2747802734375000,7.0548129081726070,37.4338417053222660,52,100,55,55,62,13305,2146963392,2147520429,2147295021,2147520219,2147091949,2146930870,2147720146,2147119579,731,-1,9,29215
1354118234,5807,987.5200195312500000,211.1598052978515600,514.6491699218750000,7.0742878913879395,37.4857597351074200,53,102,56,56,63,13301,2146962368,2147517888,2147297737,2147517869,2147091282,2146924096,2147719286,2147119890,3448,-1,9,33938
1354121834,5805,982.6799926757812000,213.3114013671875000,515.8165283203125000,7.0379528999328610,37.3811912536621100,52,101,57,55,63,13305,2146961298,2147518281,2147298971,2147518893,2147089673,2146920137,2147721600,2147120786,292,-1,8,51702
1354125434,5803,989.4099731445312000,212.6544036865234400,514.6481933593750000,7.0743198394775390,37.3990097045898440,53,100,55,54,62,13301,2146960813,2147517732,2147290806,2147521408,2147089426,2146918518,2147720978,2147114889,3562,-1,9,38350
1354129034,5805,986.1199951171875000,211.7167053222656200,514.9891967773438000,7.0637049674987790,37.4593582153320300,53,100,55,55,62,13305,2146965750,2147521563,2147297088,2147517897,2147092242,2146924214,2147716507,2147117266,3387,-1,9,10373
1354132634,5808,989.9299926757812000,211.6327972412109400,514.4926147460938000,7.0791621208190920,37.4558601379394500,53,102,55,55,62,13296,2146961106,2147515556,2147297115,2147515821,2147090980,2146922962,2147722468,2147120173,145,-1,8,63830
1354136234,5805,990.8099975585938000,211.2646026611328000,514.4193115234375000,7.0814452171325680,37.4756889343261700,52,99,55,55,61,13296,2146962294,2147518308,2147295826,2147517302,2147089728,2146924827,2147721654,2147119972,3266,-1,9,48862
1354139834,5803,991.3499755859375000,210.8309936523437500,514.1995239257812000,7.0882849693298340,37.4968986511230500,51,101,55,55,62,13299,2146963245,2147516854,2147295670,2147518747,2147092342,2146921243,2147718317,2147117110,3311,-1,9,38003
1354143434,5808,992.7399902343750000,211.4277038574218800,514.2457275390625000,7.0868439674377440,37.4631690979003900,53,101,55,55,62,13298,2146960374,2147518171,2147296036,2147519542,2147090505,2146924388,2147722102,2147120914,3170,-1,9,60480
1354147034,5806,991.4199829101562000,211.1325988769531200,513.6654052734375000,7.1049051284790040,37.4702796936035160,52,101,55,54,62,13297,2146962514,2147514249,2147297728,2147521289,2147087195,2146929764,2147721024,2147117147,337,-1,8,42677
1354150634,5806,985.9500122070312000,211.5592041015625000,515.5919799804688000,7.0449399948120120,37.4789390563964840,51,103,55,55,62,13299,2146962230,2147522176,2147296685,2147519844,2147092050,2146917376,2147722459,2147121088,3493,-1,8,34392
1354154234,5810,989.4099731445312000,213.9665069580078000,516.6115112304688000,7.0131988525390625,37.3573112487793000,53,101,56,55,62,13300,2146963264,2147517732,2147298413,2147519424,2147090340,2146925915,2147720987,2147120722,71,-1,8,26851
1354157834,5809,987.3300170898438000,214.0800018310547000,516.8798217773438000,7.0048441886901855,37.3560295104980500,51,107,55,54,63,13298,2146960310,2147518226,2147296237,2147519707,2147087222,2146924434,2147722075,2147120612,81,-1,8,56737
1354161434,5806,988.9000244140625000,213.7588958740234400,516.0097045898438000,7.0319371223449710,37.3587112426757800,52,108,57,55,63,13299,2146960932,2147517211,2147296018,2147519085,2147088246,2146922166,2147721974,2147118683,697,-1,8,62970
1354165034,5804,987.9699707031250000,212.7500000000000000,516.5344848632812000,7.0155968666076660,37.4261817932128900,51,99,56,55,62,13292,2146962715,2147518866,2147296777,2147520521,2147087652,2146924196,2147719277,2147119405,3131,-1,8,25888
1354168634,5809,989.6300048828125000,214.2109069824218800,516.8120117187500000,7.0069551467895510,37.3470001220703100,51,101,55,55,63,13293,2146963373,2147518857,2147297033,2147520192,2147090660,2146921161,2147725330,2147121371,166,-1,8,7637
1354172234,5806,992.7399902343750000,213.3303070068359400,516.3073730468750000,7.0226669311523440,37.3892593383789060,52,101,57,55,63,13293,2146959030,2147519753,2147294345,2147519067,2147089353,2146925650,2147719058,2147119030,3417,-1,9,24175
1354175834,5807,987.0700073242188000,213.2555999755859400,516.6870727539062000,7.0108442306518555,37.4001007080078100,53,105,56,56,63,13267,2146963995,2147516745,2147296777,2147520685,2147090313,2146920621,2147726454,2147122642,3212,-1,9,54157
1354179434,5807,992.4600219726562000,212.2176971435547000,515.8118286132812000,7.0380978584289550,37.4450683593750000,52,100,56,55,62,13266,2146958765,2147519734,2147297344,2147520585,2147091172,2146924224,2147718198,2147120064,3274,-1,9,39692
1354183034,5804,991.0000000000000000,211.6053009033203000,516.1796264648438000,7.0266480445861820,37.4869117736816400,52,100,56,55,62,13265,2146960530,2147516900,2147299373,2147519661,2147087579,2146922724,2147723730,2147118720,3475,-1,9,63630
1354186634,5807,994.1699829101562000,210.6262054443359400,516.7097778320312000,7.0101370811462400,37.5535011291503900,52,100,56,54,62,13258,2146965860,2147517476,2147297700,2147518070,2147088713,2146925924,2147721170,2147121764,3592,-1,9,45427
1354190234,5808,992.0200195312500000,213.2738037109375000,516.2468261718750000,7.0245528221130370,37.3911094665527340,51,104,55,56,63,13260,2146960850,2147519076,2147299739,2147521892,2147088393,2146922925,2147722861,2147121472,67,0,9,20004
1354193834,5807,989.9099731445312000,213.9786987304687500,517.0319213867188000,7.0001077651977540,37.3639907836914060,53,102,56,54,62,13259,2146962368,2147517385,2147298029,2147521042,2147091538,2146924260,2147718701,2147119168,3359,-1,9,6609
1354197434,5806,986.8300170898438000,213.6260070800781200,519.0817260742188000,6.9362587928771970,37.4213294982910160,51,99,56,55,61,13258,2146962496,2147518710,2147295067,2147520036,2147086838,2146921965,2147722669,2147121910,788,-1,8,43742
1354198256,5808,989.7399902343750000,213.9694976806640600,518.4387817382812000,6.9562888145446780,37.3897590637207000,51,101,54,55,62,13286,2146959890,2147517888,2147295369,2147522633,2147091492,2146921792,2147721993,2147119762,532,-1,8,61989
